This demonstration page uses our WeatherBlox Daily Observations layout. Learn more.

Left ArrowRight Arrow

Hourly Observations for September 7, 2022

Temp ( °F °C ) Dew Point ( °F °C ) Humidity (%) Winds ( mph kmh ) Pressure ( in mb ) Visibility ( mi km ) Precip ( " mm )
3:55 am 03:55 Clear 67 19.7 63 17.1 85 85 Calm 30.18 1022 10 16 0.00 0.00
4:55 am 04:55 Clear 66 18.8 64 17.5 92 92 Calm 30.18 1022 10 16 0.00 0.00
5:55 am 05:55 Clear 66 18.9 62 16.9 88 88 Calm 30.19 1022 10 16 0.00 0.00
6:55 am 06:55 Clear 64 17.6 62 16.4 93 93 Calm 30.20 1023 9 14 0.00 0.00
7:55 am 07:55 Sunny 66 18.8 62 16.8 88 88 Calm 30.22 1024 10 16 0.00 0.00
8:55 am 08:55 Sunny 69 20.6 63 17.2 81 81 Calm 30.22 1024 10 16 0.00 0.00
9:55 am 09:55 Sunny 75 24 64 18 69 69 Calm 30.19 1022 10 16 0.00 0.00
10:55 am 10:55 Sunny 78 25.4 64 17.6 62 62 ESE 3 6 30.20 1023 10 16 0.00 0.00
11:55 am 11:55 Sunny 81 27.2 63 17.3 55 55 S 3 6 30.22 1023 9 14 0.00 0.00
12:55 pm 12:55 Sunny 83 28.4 62 16.6 49 49 ESE 6 9 30.20 1023 10 16 0.00 0.00
1:55 pm 13:55 Sunny 84 29.1 62 16.6 47 47 E 5 7 30.18 1022 10 16 0.00 0.00
2:55 pm 14:55 Sunny 86 29.8 63 17.2 47 47 ESE 3 6 30.17 1022 10 16 0.00 0.00
3:55 pm 15:55 Sunny 86 30.1 62 16.8 45 45 ESE 6 9 30.15 1021 10 16 0.00 0.00
4:55 pm 16:55 Sunny 86 30 62 16.7 45 45 Calm 30.12 1020 10 16 0.00 0.00
5:55 pm 17:55 Sunny 85 29.4 63 17.2 48 48 SE 9 15 30.10 1019 10 16 0.00 0.00
6:55 pm 18:55 Sunny 82 28 64 17.8 54 54 SE 7 11 30.09 1019 10 16 0.00 0.00
7:55 pm 19:55 Clear 76 24.7 64 17.9 66 66 ESE 5 7 30.09 1019 10 16 0.00 0.00
8:55 pm 20:55 Clear 75 23.8 64 17.7 69 69 ESE 3 6 30.09 1019 10 16 0.00 0.00
9:55 pm 21:55 Clear 72 22.3 63 17.2 73 73 ESE 6 9 30.05 1018 10 16 0.00 0.00
10:55 pm 22:55 Clear 70 21.1 62 16.5 75 75 Calm 30.08 1019 10 16 0.00 0.00
11:55 pm 23:55 Clear 70 20.9 62 16.7 77 77 ESE 3 6 30.07 1018 10 16 0.00 0.00

Powered by AerisWeather